Regional Weather Roundup
Issued by NWS

Home | Current Version | Previous Version | Text Only | Print | Product List | Glossary On
Versions: 1 2 3 4 5 6 7 8 9 10 11 12 13 14 15 16 17 18 19 20 21 22 23 24 25 26 27 28 29 30 31 32 33 34 35 36 37 38 39 40 41 42 43 44 45 46 47 48 49 50
000
ASUS45 KCYS 241610
RWRWY

WYOMING REGIONAL WEATHER ROUNDUP
NATIONAL WEATHER SERVICE CHEYENNE WY
900 AM MST MON NOV 24 2014

NOTE:  "FAIR" INDICATES FEW OR NO CLOUDS BELOW 12,000 FEET
WITH NO SIGNIFICANT WEATHER AND/OR OBSTRUCTIONS TO VISIBILITY.

WYZ001-241700-
YELLOWSTONE NATIONAL PARK

CITY           SKY/WX    TMP DP  RH WIND       PRES   REMARKS
LK YELLOWSTONE   N/A     19  12  74 W7        30.09R WCI  10
W YELLOWSTONE  NOT AVBL

$$
WYZ002>013-054>058-071-098>099-241700-
NORTHERN WYOMING

CITY           SKY/WX    TMP DP  RH WIND       PRES   REMARKS
JACKSON        PTSUNNY   27  12  54 W9G21     30.13R WCI  17
CODY           CLOUDY    32  14  47 W9        30.04R WCI  24
GREYBULL       CLOUDY    34  24  67 NW21      30.03R WCI  22
WORLAND        PTSUNNY   26  23  88 W7        30.04R WCI  18
SHERIDAN       CLOUDY    33  26  75 NW21      29.98R WCI  21
BUFFALO        PTSUNNY   33  20  58 NW29G43   29.93R WCI  19
GILLETTE       NOT AVBL
HULETT           N/A     32  30  93 MISG        N/A
NEWCASTLE      LGT SNOW  30  30 100 NW15      29.86R WCI  19

$$
WYZ014>020-022>026-101>103-241700-
CENTRAL WYOMING

CITY           SKY/WX    TMP DP  RH WIND       PRES   REMARKS
BIG PINEY      SUNNY     37  13  37 N16       30.11R WCI  28
PINEDALE       MOSUNNY   21  18  86 NW17      30.10R WCI   7
DUBOIS         FAIR      23  10  58 MISG      30.04R
LANDER         NOT AVBL
RIVERTON       MOSUNNY   26  15  63 N8        30.04R WCI  18
CASPER         CLOUDY    29  18  63 W16G24    29.96R WCI  17
DOUGLAS        SNOW     N/A N/A N/A NW15      29.95R VSB 1/2

$$
WYZ021-027>030-104>119-241700-
SOUTHERN WYOMING

CITY           SKY/WX    TMP DP  RH WIND       PRES   REMARKS
EVANSTON       MOSUNNY   23  17  78 W9        30.19R WCI  13
FORT BRIDGER   FAIR      26  21  80 NW23G29   30.18R WCI  11
ROCK SPRINGS   MOSUNNY   24  17  74 W18G24    30.07R WCI  10
DIXON          CLOUDY    27  19  74 W9        30.08R WCI  17
RAWLINS        MOSUNNY   23  15  71 W21G29    29.99R WCI   8
SARATOGA       FAIR      23  18  80 W22       29.98R WCI   8
LARAMIE        PTSUNNY   26  11  52 NW26G36   29.90R WCI  10
CHEYENNE       PTSUNNY   31  13  47 NW22G35   29.89R WCI  18
TORRINGTON     PTSUNNY   33  19  56 W8        29.89R WCI  26
PINE BLUFFS    FAIR      36  18  48 NW25G37   29.87S WCI  23

$$


USA.gov is the U.S. government's official web portal to all federal, state and local government web resources and services.